This is the latest recevied weather packets stored in our database for station/object KW4UJ. If no packets are shown the sender has not sent any weather packets the latest 10 day(s).
| Time | Temp. | Humidity | Pressure | Rain* | Wind** | Luminosity | Snow |
|---|---|---|---|---|---|---|---|
| 1777499419 | 14.44° C | 95% | 1008.1 hPa | 6.1 mm | - | 14 W/m² | - |
| 1777499117 | 14.44° C | 95% | 1008.1 hPa | 6.6 mm | - | 9 W/m² | - |
| 1777498814 | 14.44° C | 95% | 1008.3 hPa | 4.83 mm | - | 8 W/m² | - |
| 1777498510 | 14.44° C | 94% | 1008.5 hPa | 3.05 mm | - | 6 W/m² | - |
| 1777498206 | 15° C | 94% | 1008.5 hPa | 3.05 mm | - | 14 W/m² | - |
| 1777497905 | 15° C | 94% | 1008.3 hPa | 3.05 mm | - | 17 W/m² | - |
| 1777497600 | 15° C | 94% | 1008.5 hPa | 1.78 mm | - | 19 W/m² | - |
| 1777497297 | 15° C | 93% | 1008.3 hPa | 0 mm | - | 17 W/m² | - |
| 1777496993 | 15° C | 93% | 1008.1 hPa | 1.27 mm | - | 18 W/m² | - |
| 1777496690 | 15° C | 93% | 1008.3 hPa | 1.27 mm | - | 18 W/m² | - |
| 1777496386 | 15° C | 92% | 1008.2 hPa | 1.78 mm | - | 22 W/m² | - |
| 1777496083 | 15° C | 91% | 1008.2 hPa | 1.78 mm | - | 35 W/m² | - |
| 1777495778 | 15° C | 91% | 1008.1 hPa | 0 mm | - | 32 W/m² | - |
| 1777495475 | 15° C | 91% | 1008.3 hPa | 0 mm | - | 35 W/m² | - |
| 1777495171 | 15° C | 91% | 1008.1 hPa | 0 mm | - | 40 W/m² | - |
| 1777494869 | 15° C | 91% | 1008.5 hPa | 0 mm | - | 41 W/m² | - |
| 1777494566 | 15° C | 90% | 1008.3 hPa | 0 mm | - | 43 W/m² | - |
| 1777494263 | 15° C | 90% | 1008.4 hPa | 0 mm | - | 41 W/m² | - |
| 1777493960 | 15° C | 90% | 1008.5 hPa | 0 mm | - | 49 W/m² | - |
| 1777493658 | 15° C | 90% | 1008.5 hPa | 0 mm | - | 86 W/m² | - |
| 1777493355 | 15° C | 90% | 1008.4 hPa | 0 mm | - | 115 W/m² | - |
| 1777493051 | 15° C | 90% | 1008.8 hPa | 0 mm | - | 115 W/m² | - |
| 1777492748 | 15° C | 91% | 1008.8 hPa | 0 mm | - | 175 W/m² | - |
| 1777492443 | 15° C | 91% | 1008.9 hPa | 0 mm | - | 87 W/m² | - |
| 1777492141 | 15° C | 91% | 1008.9 hPa | 0 mm | - | 132 W/m² | - |
* Rain latest hour (hover to see other rain measurements)
** Current wind speed in m/s (hover to see current wind gust speed)